Weather History for Norwood, MA

Change the Weather History Date:

Monday, August 19, 2013

  Actual Average Record
Temperature  
Mean Temperature 68 °F -  
Max Temperature 84 °F 78 °F 91 °F (2002)
Min Temperature 55 °F 56 °F 39 °F (2007)
Cooling Degree Days 4    
Growing Degree Days 18 (Base 50)    
Moisture  
Dew Point 57 °F    
Average Humidity 67    
Maximum Humidity 93    
Minimum Humidity 36    
Precipitation  
Precipitation 0.01 in - - ()
Sea Level Pressure  
Sea Level Pressure 30.01 in    
Wind  
Wind Speed 3 mph (West)    
Max Wind Speed 12 mph    
Max Gust Speed 16 mph    
Visibility 10 miles    
Events      
Averages and records for this station are not official NWS values.
T = Trace of Precipitation, MM = Missing Value Source: NWS Daily Summary

Daily Weather History Graph

Daily Weather History Graph

Search for Another Location

Airport:

Trip Planner

Search our weather history database for the weather conditions in past years. The results will help you decide how hot, cold, wet, or windy it might be!

Date:

Astronomy

Aug. 19, 2013 Rise Set
Actual Time 5:56 AM EDT 7:39 PM EDT
Civil Twilight 5:26 AM EDT 8:08 PM EDT
Nautical Twilight 4:50 AM EDT 8:44 PM EDT
Astronomical Twilight 4:11 AM EDT 9:23 PM EDT
Moon 6:28 PM EDT (8/19) 4:11 AM EDT (8/19)
Length of Visible Light 14h 42m
Length of Day
13h 42m
Waxing Gibbous, 97% of the Moon is Illuminated
Aug 19
Waxing Gibbous
Aug 20
Full
Aug 28
Last Quarter
Sep 5
New
Sep 12
First Quarter

Hourly Weather History & Observations

Time (EDT) Temp. Heat Index Dew Point Humidity Pressure Visibility Wind Dir Wind Speed Gust Speed Precip Events Conditions
12:53 AM 59.0 °F - 55.9 °F 90% 30.09 in 10.0 mi Calm Calm - N/A   Clear
1:53 AM 57.0 °F - 55.0 °F 93% 30.07 in 8.0 mi Calm Calm - N/A   Clear
2:53 AM 55.0 °F - 53.1 °F 93% 30.06 in 10.0 mi Calm Calm - N/A   Clear
3:53 AM 57.9 °F - 54.0 °F 87% 30.06 in 10.0 mi Calm Calm - N/A   Clear
4:53 AM 55.0 °F - 53.1 °F 93% 30.05 in 10.0 mi Calm Calm - 0.01 in   Clear
5:53 AM 55.9 °F - 53.1 °F 90% 30.05 in 10.0 mi Calm Calm - N/A   Clear
6:53 AM 60.1 °F - 57.0 °F 90% 30.05 in 10.0 mi Calm Calm - N/A   Clear
7:53 AM 64.9 °F - 59.0 °F 81% 30.04 in 10.0 mi Calm Calm - N/A   Clear
8:53 AM 71.1 °F - 61.0 °F 70% 30.04 in 10.0 mi WNW 5.8 mph - N/A   Clear
9:53 AM 75.0 °F - 61.0 °F 62% 30.02 in 10.0 mi West 10.4 mph - N/A   Clear
10:53 AM 78.1 °F - 59.0 °F 52% 30.01 in 10.0 mi WNW 9.2 mph - N/A   Clear
11:53 AM 79.0 °F - 55.9 °F 45% 30.01 in 10.0 mi West 6.9 mph - N/A   Clear
12:53 PM 81.0 °F - 52.0 °F 36% 29.99 in 10.0 mi WSW 8.1 mph - N/A   Clear
1:53 PM 82.0 °F 81.2 °F 53.1 °F 37% 29.98 in 10.0 mi Variable 6.9 mph - N/A   Clear
2:53 PM 82.0 °F 81.7 °F 57.0 °F 42% 29.97 in 10.0 mi WNW 6.9 mph - N/A   Clear
3:53 PM 81.0 °F 81.0 °F 57.0 °F 44% 29.96 in 10.0 mi West 11.5 mph 16.1 mph N/A   Clear
4:53 PM 79.0 °F - 60.1 °F 52% 29.96 in 10.0 mi WSW 10.4 mph - N/A   Clear
5:53 PM 77.0 °F - 60.1 °F 56% 29.96 in 10.0 mi WSW 5.8 mph - N/A   Clear
6:53 PM 75.9 °F - 60.1 °F 58% 29.97 in 10.0 mi West 6.9 mph - N/A   Clear
7:53 PM 73.9 °F - 60.1 °F 62% 29.98 in 10.0 mi WSW 5.8 mph - N/A   Clear
8:53 PM 73.0 °F - 60.1 °F 64% 29.99 in 10.0 mi WSW 3.5 mph - N/A   Clear
9:53 PM 72.0 °F - 61.0 °F 68% 29.99 in 10.0 mi WSW 4.6 mph - N/A   Clear
10:53 PM 71.1 °F - 60.1 °F 68% 29.99 in 10.0 mi West 5.8 mph - N/A   Clear
11:53 PM 71.1 °F - 60.1 °F 68% 29.99 in 10.0 mi WSW 3.5 mph - N/A   Clear